Sella Ness, United Kingdom

12:37 AM BST on March 27, 2017 (GMT +0100)
Scatsta

Weather History for EGPM - February, 2013

Change the Weather History Date:

Wednesday, February 6, 2013

  Actual Average Record
Temperature  
Mean Temperature 36 °F -  
Max Temperature 39 °F 41 °F 50 °F (1998)
Min Temperature 33 °F 35 °F 17 °F (2001)
Degree Days  
Heating Degree Days 29    
Moisture  
Dew Point 30 °F    
Average Humidity 75    
Maximum Humidity 93    
Minimum Humidity 61    
Precipitation  
Precipitation 0.00 in - - ()
Sea Level Pressure  
Sea Level Pressure 29.84 in    
Wind  
Wind Speed 24 mph ()    
Max Wind Speed 30 mph    
Max Gust Speed 43 mph    
Visibility 6.1 miles    
Events Rain , Snow    
Averages and records for this station are not official NWS values.
T = Trace of Precipitation, MM = Missing Value Source: Averaged Metar Reports

Daily Weather History Graph

Daily Weather History Graph

Search for Another Location

Airport or City:

Trip Planner

Search our weather history database for the weather conditions in past years. The results will help you decide how hot, cold, wet, or windy it might be!

Date:

Astronomy

Feb. 06, 2013 Rise Set
Actual Time 8:08 AM GMT 4:30 PM GMT
Civil Twilight 7:21 AM GMT 5:17 PM GMT
Nautical Twilight 6:31 AM GMT 6:08 PM GMT
Astronomical Twilight 5:42 AM GMT 6:57 PM GMT
Moon 5:14 AM GMT (2/6) 11:56 AM GMT (2/6)
Length of Visible Light 9h 55m
Length of Day
8h 22m
Waning Crescent, 19% of the Moon is Illuminated
Feb 6
Waning Crescent
Feb 10
New
Feb 17
First Quarter
Feb 25
Full
Mar 4
Last Quarter

Hourly Weather History & Observations

Time (GMT) Temp. Windchill Dew Point Humidity Pressure Visibility Wind Dir Wind Speed Gust Speed Precip Events Conditions
12:20 AM 37.4 °F 25.2 °F 32.0 °F 81% 29.59 in 4.3 mi North 28.8 mph - N/A   Partly Cloudy
12:50 AM 37.4 °F 25.9 °F 32.0 °F 81% 29.62 in 6.2 mi North 25.3 mph 38.0 mph N/A   Unknown
1:20 AM 39.2 °F 28.0 °F 28.4 °F 65% 29.62 in 6.2 mi North 26.5 mph 38.0 mph N/A   Unknown
1:50 AM 37.4 °F 25.6 °F 32.0 °F 81% 29.62 in 6.2 mi North 26.5 mph 40.3 mph N/A Rain Rain
2:20 AM 37.4 °F 25.4 °F 28.4 °F 70% 29.65 in 6.2 mi North 27.6 mph - N/A   Partly Cloudy
2:50 AM 39.2 °F 27.8 °F 32.0 °F 75% 29.68 in 6.2 mi NNW 27.6 mph - N/A   Unknown
3:20 AM 39.2 °F 28.0 °F 30.2 °F 70% 29.68 in 6.2 mi North 26.5 mph - N/A   Partly Cloudy
3:50 AM 37.4 °F 25.4 °F 30.2 °F 75% 29.68 in 6.2 mi North 27.6 mph 41.4 mph N/A Snow Light Snow
4:20 AM 37.4 °F 25.2 °F 32.0 °F 81% 29.68 in 5.0 mi North 28.8 mph - N/A Rain Rain
4:50 AM 39.2 °F 27.8 °F 30.2 °F 70% 29.71 in 6.2 mi North 27.6 mph 39.1 mph N/A   Partly Cloudy
5:20 AM 39.2 °F 28.0 °F 28.4 °F 65% 29.74 in 6.2 mi North 26.5 mph 41.4 mph N/A   Partly Cloudy
5:50 AM 39.2 °F 27.6 °F 26.6 °F 61% 29.74 in 6.2 mi North 28.8 mph 42.6 mph N/A   Partly Cloudy
6:50 AM 37.4 °F 25.2 °F 32.0 °F 81% 29.77 in 6.2 mi NNW 28.8 mph - N/A   Partly Cloudy
7:20 AM 37.4 °F 25.6 °F 30.2 °F 75% 29.80 in 6.2 mi North 26.5 mph - N/A   Scattered Clouds
7:50 AM 39.2 °F 28.3 °F 32.0 °F 75% 29.80 in 6.2 mi North 25.3 mph - N/A Rain Light Rain Showers
8:20 AM 39.2 °F 27.8 °F 30.2 °F 70% 29.80 in 6.2 mi North 27.6 mph 39.1 mph N/A   Partly Cloudy
8:50 AM 39.2 °F 28.3 °F 28.4 °F 65% 29.80 in 6.2 mi North 25.3 mph - N/A   Partly Cloudy
9:20 AM 39.2 °F 27.4 °F 28.4 °F 65% 29.83 in 6.2 mi North 29.9 mph - N/A   Partly Cloudy
9:50 AM 37.4 °F 25.0 °F 30.2 °F 75% 29.86 in 6.2 mi North 29.9 mph - N/A   Partly Cloudy
10:20 AM 39.2 °F 28.3 °F 28.4 °F 65% 29.86 in 6.2 mi NNW 25.3 mph - N/A   Partly Cloudy
10:50 AM 39.2 °F 27.8 °F 28.4 °F 65% 29.86 in 6.2 mi North 27.6 mph - N/A   Partly Cloudy
11:20 AM 39.2 °F 27.8 °F 32.0 °F 75% 29.86 in 6.2 mi North 27.6 mph 39.1 mph N/A   Partly Cloudy
11:50 AM 39.2 °F 28.3 °F 32.0 °F 75% 29.86 in 6.2 mi NNW 25.3 mph 39.1 mph N/A   Partly Cloudy
12:20 PM 35.6 °F 23.2 °F 32.0 °F 87% 29.86 in 6.2 mi North 26.5 mph 39.1 mph N/A   Scattered Clouds
12:50 PM 37.4 °F 26.1 °F 30.2 °F 75% 29.89 in 6.2 mi NNW 24.2 mph - N/A   Scattered Clouds
1:20 PM 37.4 °F 25.6 °F 28.4 °F 70% 29.89 in 6.2 mi North 26.5 mph 39.1 mph N/A   Scattered Clouds
1:50 PM 37.4 °F 25.4 °F 28.4 °F 70% 29.89 in 6.2 mi NNW 27.6 mph - N/A   Scattered Clouds
2:20 PM 37.4 °F 25.6 °F 30.2 °F 75% 29.92 in 6.2 mi NNW 26.5 mph 38.0 mph N/A   Scattered Clouds
2:50 PM 37.4 °F 26.1 °F 30.2 °F 75% 29.92 in 6.2 mi NNW 24.2 mph - N/A   Scattered Clouds
3:20 PM 37.4 °F 25.6 °F 28.4 °F 70% 29.92 in 6.2 mi NNW 26.5 mph 41.4 mph N/A   Scattered Clouds
3:50 PM 37.4 °F 25.0 °F 28.4 °F 70% 29.92 in 6.2 mi NNW 29.9 mph - N/A   Scattered Clouds
4:20 PM 37.4 °F 26.4 °F 32.0 °F 81% 29.92 in 6.2 mi North 23.0 mph 41.4 mph N/A Rain , Snow Rain Showers
4:50 PM 37.4 °F 25.6 °F 28.4 °F 70% 29.95 in 6.2 mi NNW 26.5 mph 38.0 mph N/A   Scattered Clouds
5:20 PM 37.4 °F 25.9 °F 30.2 °F 75% 29.95 in 6.2 mi NNW 25.3 mph - N/A   Scattered Clouds
5:50 PM 35.6 °F 23.4 °F 30.2 °F 81% 29.95 in 6.2 mi NNW 25.3 mph - N/A   Scattered Clouds
6:20 PM 37.4 °F 26.4 °F 28.4 °F 70% 29.95 in 6.2 mi NNW 23.0 mph - N/A   Drizzle
6:50 PM 35.6 °F 24.0 °F 32.0 °F 87% 29.95 in 6.2 mi North 23.0 mph - N/A Rain Rain
7:20 PM 37.4 °F 26.1 °F 28.4 °F 70% 29.95 in 6.2 mi NNW 24.2 mph - N/A   Mostly Cloudy
7:50 PM 35.6 °F 24.0 °F 30.2 °F 81% 29.95 in 6.2 mi NNW 23.0 mph 35.7 mph N/A   Scattered Clouds
8:20 PM 35.6 °F 23.7 °F 32.0 °F 87% 29.95 in 6.2 mi North 24.2 mph 35.7 mph N/A Rain Rain
8:50 PM 37.4 °F 26.4 °F 28.4 °F 70% 29.95 in 6.2 mi NNW 23.0 mph - N/A   Scattered Clouds
9:20 PM 37.4 °F 26.9 °F 28.4 °F 70% 29.95 in 6.2 mi NNW 20.7 mph - N/A   Scattered Clouds
9:50 PM 37.4 °F 26.1 °F 30.2 °F 75% 29.95 in 6.2 mi NNW 24.2 mph - N/A   Drizzle
10:20 PM 35.6 °F 25.2 °F 30.2 °F 81% 29.95 in 6.2 mi NNW 18.4 mph - N/A   Mostly Cloudy
10:50 PM 37.4 °F 26.1 °F 30.2 °F 75% 29.95 in 6.2 mi NNW 24.2 mph - N/A   Mostly Cloudy
11:20 PM 33.8 °F 22.5 °F 32.0 °F 93% 29.95 in 5.0 mi NNW 19.6 mph 34.5 mph N/A Rain Rain
11:50 PM 35.6 °F 24.0 °F 32.0 °F 87% 29.98 in 6.2 mi North 23.0 mph - N/A   Drizzle